• In United Kingdom
  • List of Countries
  • For 7 days
  • Water Temperature
  • Satellite Maps
  • Weather Map
  • Weather Widgets
  • user-avatar
    Login

    Hourly Weather Ipswich

    Today, 18 September, Tuesday

    Time Temperature Precipitation Wind Pressure Humidity
    00:00 +20°C° 0 mm 7 mps 754 mmHg 59%
    01:00 +20°C° 0 mm 7 mps 754 mmHg 62%
    02:00 +20°C° 0 mm 7 mps 753 mmHg 64%
    03:00 +20°C° 0 mm 7 mps 753 mmHg 67%
    04:00 +18°C° 0 mm 8 mps 753 mmHg 71%
    05:00 +18°C° 0 mm 8 mps 753 mmHg 75%
    06:00 +18°C° 0 mm 8 mps 753 mmHg 79%
    07:00 +18°C° 0 mm 9 mps 753 mmHg 75%
    08:00 +19°C° 0 mm 10 mps 753 mmHg 71%
    09:00 +21°C° 0 mm 11 mps 754 mmHg 66%
    10:00 +21°C° 0 mm 11 mps 754 mmHg 63%
    11:00 +22°C° 0 mm 10 mps 755 mmHg 61%
    12:00 +22°C° 0 mm 10 mps 755 mmHg 58%
    13:00 +23°C° 0 mm 10 mps 756 mmHg 57%
    14:00 +23°C° 0 mm 9 mps 756 mmHg 55%
    15:00 +23°C° 0 mm 9 mps 756 mmHg 54%
    16:00 +22°C° 0 mm 8 mps 757 mmHg 58%
    17:00 +21°C° 0 mm 7 mps 757 mmHg 62%
    18:00 +20°C° 0 mm 6 mps 757 mmHg 66%
    19:00 +20°C° 0 mm 6 mps 757 mmHg 68%
    20:00 +18°C° 0 mm 7 mps 758 mmHg 71%
    21:00 +18°C° 0 mm 7 mps 758 mmHg 73%
    22:00 +18°C° 0 mm 7 mps 758 mmHg 73%
    23:00 +18°C° 0 mm 7 mps 758 mmHg 73%

    Tomorrow, 19 September, Wednesday

    Time Temperature Precipitation Wind Pressure Humidity
    00:00 +17°C° 0 mm 7 mps 758 mmHg 73%
    01:00 +17°C° 0 mm 7 mps 758 mmHg 73%
    02:00 +17°C° 0 mm 7 mps 758 mmHg 74%
    03:00 +17°C° 0 mm 7 mps 758 mmHg 74%
    04:00 +17°C° 0 mm 7 mps 758 mmHg 76%
    05:00 +17°C° 0 mm 7 mps 758 mmHg 77%
    06:00 +17°C° 0 mm 7 mps 758 mmHg 78%
    07:00 +18°C° 0 mm 8 mps 758 mmHg 74%
    08:00 +20°C° 0 mm 8 mps 758 mmHg 70%
    09:00 +21°C° 0 mm 9 mps 758 mmHg 66%
    10:00 +21°C° 0 mm 10 mps 758 mmHg 65%
    11:00 +22°C° 0 mm 10 mps 758 mmHg 63%
    12:00 +22°C° 0 mm 11 mps 758 mmHg 62%
    13:00 +22°C° 0 mm 11 mps 757 mmHg 62%
    14:00 +22°C° 0 mm 11 mps 757 mmHg 63%
    15:00 +22°C° 0 mm 11 mps 757 mmHg 64%
    16:00 +21°C° 0 mm 10 mps 757 mmHg 64%
    17:00 +21°C° 0 mm 9 mps 757 mmHg 64%
    18:00 +21°C° 0 mm 9 mps 758 mmHg 64%
    19:00 +20°C° 0 mm 8 mps 758 mmHg 67%
    20:00 +20°C° 0 mm 8 mps 759 mmHg 70%
    21:00 +18°C° 0 mm 8 mps 759 mmHg 73%
    22:00 +17°C° 0 mm 7 mps 759 mmHg 76%
    23:00 +17°C° 0 mm 7 mps 759 mmHg 79%

    Day after tomorrow, 20 September, Thursday

    Time Temperature Precipitation Wind Pressure Humidity
    00:00 +16°C° 0 mm 6 mps 759 mmHg 81%
    01:00 +16°C° 0 mm 6 mps 759 mmHg 81%
    02:00 +17°C° 0 mm 6 mps 759 mmHg 81%
    03:00 +17°C° 0 mm 6 mps 758 mmHg 82%
    04:00 +17°C° 0.2 mm 8 mps 758 mmHg 80%
    05:00 +17°C° 0.2 mm 9 mps 758 mmHg 79%
    06:00 +18°C° 0.2 mm 10 mps 757 mmHg 78%
    07:00 +18°C° 0.1 mm 10 mps 757 mmHg 76%
    08:00 +18°C° 0.1 mm 10 mps 757 mmHg 73%
    09:00 +19°C° 0.1 mm 9 mps 757 mmHg 71%
    10:00 +19°C° 0.2 mm 9 mps 757 mmHg 72%
    11:00 +20°C° 0.2 mm 8 mps 757 mmHg 73%
    12:00 +20°C° 0.2 mm 8 mps 756 mmHg 73%
    13:00 +19°C° 0 mm 9 mps 756 mmHg 70%
    14:00 +21°C° 0 mm 10 mps 755 mmHg 67%
    15:00 +22°C° 0 mm 11 mps 754 mmHg 63%
    16:00 +21°C° 0.1 mm 11 mps 753 mmHg 65%
    17:00 +21°C° 0.1 mm 11 mps 752 mmHg 66%
    18:00 +19°C° 0.1 mm 11 mps 751 mmHg 68%
    19:00 +19°C° 0.5 mm 11 mps 751 mmHg 71%
    20:00 +19°C° 0.5 mm 12 mps 750 mmHg 73%
    21:00 +18°C° 0.5 mm 12 mps 749 mmHg 76%
    22:00 +18°C° 0.7 mm 12 mps 749 mmHg 77%
    23:00 +18°C° 0.7 mm 12 mps 749 mmHg 78%

    21 September, Friday

    Time Temperature Precipitation Wind Pressure Humidity
    00:00 +17°C° 0.7 mm 12 mps 749 mmHg 79%
    01:00 +14°C° 0.2 mm 11 mps 750 mmHg 78%
    02:00 +12°C° 0.2 mm 10 mps 750 mmHg 78%
    03:00 +10°C° 0.2 mm 9 mps 751 mmHg 77%
    04:00 +9°C° 0 mm 8 mps 752 mmHg 78%
    05:00 +9°C° 0 mm 8 mps 753 mmHg 80%
    06:00 +8°C° 0 mm 7 mps 754 mmHg 81%
    07:00 +9°C° 0 mm 7 mps 755 mmHg 75%
    08:00 +10°C° 0 mm 8 mps 755 mmHg 68%
    09:00 +11°C° 0 mm 8 mps 756 mmHg 62%
    10:00 +12°C° 0 mm 9 mps 756 mmHg 56%
    11:00 +13°C° 0 mm 9 mps 757 mmHg 50%
    12:00 +15°C° 0 mm 9 mps 757 mmHg 44%
    13:00 +15°C° 0 mm 9 mps 757 mmHg 43%
    14:00 +14°C° 0 mm 10 mps 758 mmHg 42%
    15:00 +14°C° 0 mm 10 mps 758 mmHg 41%
    16:00 +13°C° 0 mm 9 mps 759 mmHg 46%
    17:00 +12°C° 0 mm 9 mps 760 mmHg 51%
    18:00 +11°C° 0 mm 8 mps 760 mmHg 56%
    19:00 +11°C° 0 mm 8 mps 761 mmHg 59%
    20:00 +10°C° 0 mm 7 mps 762 mmHg 62%
    21:00 +10°C° 0 mm 7 mps 763 mmHg 65%
    22:00 +9°C° 0 mm 6 mps 763 mmHg 68%
    23:00 +9°C° 0 mm 6 mps 764 mmHg 70%

    22 September, Saturday

    Time Temperature Precipitation Wind Pressure Humidity
    00:00 +9°C° 0 mm 6 mps 764 mmHg 73%
    01:00 +9°C° 0 mm 6 mps 764 mmHg 75%
    02:00 +8°C° 0 mm 6 mps 765 mmHg 76%
    03:00 +8°C° 0 mm 6 mps 765 mmHg 77%
    04:00 +8°C° 0 mm 5 mps 765 mmHg 79%
    05:00 +8°C° 0 mm 5 mps 765 mmHg 81%
    06:00 +8°C° 0 mm 5 mps 765 mmHg 83%
    07:00 +9°C° 0 mm 5 mps 765 mmHg 76%
    08:00 +10°C° 0 mm 5 mps 766 mmHg 69%
    09:00 +13°C° 0 mm 5 mps 766 mmHg 62%
    10:00 +14°C° 0 mm 5 mps 766 mmHg 57%
    11:00 +15°C° 0 mm 5 mps 766 mmHg 51%
    12:00 +17°C° 0 mm 4 mps 766 mmHg 45%
    13:00 +17°C° 0 mm 4 mps 766 mmHg 47%
    14:00 +17°C° 0 mm 4 mps 766 mmHg 48%
    15:00 +16°C° 0 mm 3 mps 765 mmHg 49%
    16:00 +14°C° 0.2 mm 3 mps 765 mmHg 55%
    17:00 +14°C° 0.2 mm 3 mps 765 mmHg 62%
    18:00 +13°C° 0.2 mm 4 mps 764 mmHg 68%
    19:00 +12°C° 1.7 mm 5 mps 763 mmHg 74%
    20:00 +11°C° 1.7 mm 6 mps 763 mmHg 80%
    21:00 +11°C° 1.7 mm 7 mps 762 mmHg 85%
    22:00 +11°C° 1.2 mm 8 mps 760 mmHg 86%
    23:00 +12°C° 1.2 mm 9 mps 759 mmHg 86%

    23 September, Sunday

    Time Temperature Precipitation Wind Pressure Humidity
    00:00 +12°C° 1.2 mm 10 mps 758 mmHg 87%
    01:00 +15°C° 0.3 mm 9 mps 757 mmHg 89%
    02:00 +16°C° 0.3 mm 9 mps 755 mmHg 91%
    03:00 +18°C° 0.3 mm 8 mps 754 mmHg 93%
    04:00 +18°C° 0.3 mm 9 mps 753 mmHg 91%
    05:00 +18°C° 0.3 mm 10 mps 752 mmHg 89%
    06:00 +19°C° 0.3 mm 11 mps 751 mmHg 87%
    07:00 +18°C° 0.1 mm 13 mps 749 mmHg 84%
    08:00 +18°C° 0.1 mm 14 mps 748 mmHg 82%
    09:00 +18°C° 0.1 mm 15 mps 747 mmHg 79%
    10:00 +16°C° 0.1 mm 16 mps 746 mmHg 72%
    11:00 +16°C° 0.1 mm 17 mps 745 mmHg 66%
    12:00 +15°C° 0.1 mm 18 mps 744 mmHg 59%
    13:00 +14°C° 0 mm 18 mps 744 mmHg 58%
    14:00 +14°C° 0 mm 18 mps 744 mmHg 57%
    15:00 +13°C° 0 mm 17 mps 744 mmHg 56%
    16:00 +11°C° 0.1 mm 18 mps 745 mmHg 56%
    17:00 +11°C° 0.1 mm 18 mps 746 mmHg 55%
    18:00 +10°C° 0.1 mm 18 mps 747 mmHg 55%
    19:00 +10°C° 0.1 mm 18 mps 749 mmHg 56%
    20:00 +9°C° 0.1 mm 18 mps 751 mmHg 56%
    21:00 +9°C° 0.1 mm 18 mps 754 mmHg 57%
    22:00 +9°C° 0.1 mm 17 mps 756 mmHg 56%
    23:00 +7°C° 0.1 mm 17 mps 758 mmHg 56%
    Show more